Location: Elliott Corner
(37.4627°N, 119.7746°W)
Time: 20:41:16
(UTC+00:00)

IRS-1D - Pass Details

Date: 10 September 2024
Orbit: 738 x 812 km, 98.8° (Epoch: 11 October)

Event Time Altitude Azimuth Distance (km) Brightness Sun altitude
Rises 12:34:25 0° 4° (N) 3,330 7.1 -13.1°
Reaches altitude 10° 12:36:53 10° 357° (N) 2,401 6.2 -12.6°
Maximum altitude 12:41:47 39° 290° (WNW) 1,203 4.1 -11.7°
Drops below altitude 10° 12:46:40 10° 223° (SW) 2,392 5.6 -10.7°
Enters shadow 12:47:13 - 221° (SW) 2,594 5.7 -10.6°
